Location: Münzesheim
(49.1232°N, 8.7124°E)
Time: 15:02:44
(UTC+00:00)

Daily predictions for brighter satellites

Satellite Brightness Start Highest point End
(mag) Time Altitude Azimuth Time Altitude Azimuth Time Altitude Azimuth
BREEZE-M DEB (TANK) 4.0 19:06:49 10° SW 19:11:05 70° SE 19:27:19 10° ENE
Cosmos 1954 Rocket 4.3 19:18:11 10° NNW 19:23:21 70° WSW 19:28:27 10° SSE
Cosmos 1697 Rocket 2.8 19:17:56 10° NNW 19:23:35 69° ENE 19:29:09 10° SE
Okean O Rocket 2.5 19:21:13 10° SE 19:25:01 32° ENE 19:28:50 10° N
ATLAS 3B R/B 3.1 19:17:41 10° NW 19:25:34 73° NE 19:32:58 10° SE
SL-16 R/B 4.3 19:23:21 10° N 19:26:33 15° NNE 19:29:44 10° ENE
ERS-1 Rocket 3.0 19:21:55 10° SSE 19:26:55 77° ENE 19:31:57 10° NNW
Cosmos 1867 3.6 19:24:05 10° SSW 19:29:30 77° SE 19:34:59 10° NE
Helios 1A Rocket 2.3 19:26:47 10° NNE 19:29:54 55° ESE 19:33:00 10° S
Cosmos 332 Rocket 3.9 19:25:09 10° NNW 19:29:57 83° WSW 19:34:43 10° SSE
USA 186 3.1 19:28:41 10° ESE 19:30:39 19° ENE 19:32:41 10° NNE
Meteor 1-31 Rocket 3.2 19:29:42 10° S 19:33:07 53° W 19:36:33 10° NNW
Cosmos 1331 Rocket 4.5 19:32:08 10° S 19:36:58 39° ESE 19:41:47 10° NE
MOS 1 4.4 19:32:01 10° SSE 19:37:42 86° WSW 19:43:26 10° NNW
Okean-O 3.2 19:33:40 10° SE 19:37:46 41° ENE 19:41:53 10° N
Cosmos 968 Rocket 3.5 19:33:03 10° NNW 19:38:20 75° ENE 19:43:34 10° SSE
Cosmos 676 Rocket 4.3 19:33:36 10° NNW 19:38:49 70° WSW 19:43:57 10° SSE
Cosmos 2333 Rocket 4.3 19:35:53 10° N 19:39:22 16° NNE 19:42:51 10° ENE
Cosmos 1892 Rocket 4.4 19:38:37 10° N 19:42:35 34° ENE 19:46:26 10° SE
Meteor 2-1 Rocket 4.3 19:38:08 10° S 19:43:44 62° E 19:49:15 10° NNE
Cosmos 2173 Rocket 4.0 19:38:48 10° S 19:44:48 61° E 19:50:55 10° NNE
Cosmos 1455 Rocket 3.9 19:43:42 10° SSE 19:47:36 32° E 19:51:31 10° NNE
Cosmos 1980 Rocket 2.6 19:46:02 10° NNW 19:51:39 55° NE 19:56:48 12° SE
SL-08 R/B 3.4 19:46:55 10° NNE 19:51:44 59° ESE 19:56:27 10° S
Okean 1 Rocket 3.0 19:49:12 10° S 19:53:32 69° E 19:57:57 10° NNE
Meteor 2-3 Rocket 3.8 19:51:29 10° NNW 19:57:08 84° W 20:02:47 10° S
Cosmos 2084 4.4 19:53:43 10° WSW 19:57:45 51° NW 20:01:49 10° NE
SPOT 3 Rocket 4.3 19:53:56 12° SE 19:58:20 39° ENE 20:03:05 10° N
CZ-4 R/B 3.0 19:56:15 10° SSW 19:59:27 29° W 20:02:40 10° NW
CZ-4B R/B 3.7 19:58:30 14° ESE 20:00:42 26° ENE 20:03:36 10° N
Cosmos 1782 3.5 19:59:06 14° SE 20:01:28 27° E 20:04:31 10° NNE
Cosmos 1850 Rocket 4.0 19:56:26 10° NNW 20:01:38 76° ENE 20:06:17 13° SSE
CZ-4B R/B 3.8 20:03:43 10° S 20:09:18 60° WSW 20:14:54 10° NNW
Cosmos 1833 Rocket 3.1 20:05:11 10° SW 20:10:45 67° WNW 20:16:22 10° NNE
Cosmos 1110 Rocket 4.0 20:05:45 10° SSW 20:11:01 78° ESE 20:16:21 10° NNE
Cosmos 1802 Rocket 4.0 20:05:07 10° S 20:11:16 68° E 20:17:23 10° NNE
Terra 2.7 20:09:04 10° S 20:13:34 46° W 20:18:07 10° NNW
Gbstr 26 Del rocket 3.1 20:10:24 10° WNW 20:15:36 82° SSW 20:18:53 17° ESE
Sich 1 Rocket 3.6 20:12:03 10° SSW 20:16:24 80° W 20:20:47 10° N
Cosmos 2360 Rocket 4.3 20:13:19 10° N 20:17:00 17° NE 20:20:41 10° ENE
YAOGAN 11 4.0 20:16:58 10° NNE 20:21:23 75° ESE 20:25:49 10° S
CZ-2C R/B 3.4 20:23:39 20° E 20:24:31 24° ENE 20:26:51 10° NNE
Cosmos 1743 2.0 20:23:45 10° N 20:26:47 86° WSW 20:28:34 22° S
Meteor 1-27 4.2 20:25:10 10° S 20:30:50 75° E 20:36:27 10° NNE
Cosmos 44 Rocket 3.3 20:26:22 10° SSW 20:31:24 71° SE 20:36:34 10° NE
Cosmos 1459 Rocket 4.3 20:26:09 10° SSW 20:32:22 68° WNW 20:38:31 10° N
ISS -3.2 20:29:30 10° SW 20:32:35 36° SSE 20:35:05 14° E
Cosmos 2219 Rocket 4.4 20:31:07 10° N 20:34:28 16° NNE 20:37:49 10° ENE
Ariane Rocket 3.1 20:32:21 20° SE 20:35:44 61° ENE 20:40:44 10° N
Meteor 2-12 Rocket 4.4 20:29:56 10° N 20:36:02 81° E 20:40:49 17° SSE
ATLAS 2AS CENTAUR R/B 3.8 20:33:47 10° WSW 20:40:27 48° NW 20:47:02 10° NE
Spot 2 Rocket 4.2 20:36:59 10° S 20:41:47 49° W 20:46:41 10° NNW
Cosmos 2369 3.8 20:37:03 10° NNW 20:42:46 70° ENE 20:46:24 23° SE
BREEZE-M DEB (TANK) 4.1 20:39:51 10° W 20:43:00 40° SSW 20:47:10 21° SE
SL-4 R/B 3.6 20:40:19 10° W 20:43:16 21° SW 20:44:44 17° S
Cosmos 2322 Rocket 3.8 20:40:23 10° N 20:44:58 24° NE 20:49:16 11° E
Cosmos 2082 Rocket 2.3 20:41:12 10° S 20:46:45 56° ESE 20:52:20 10° NE
Cosmos 1437 Rocket 3.9 20:47:59 22° E 20:48:07 22° E 20:50:54 10° NE
USA 305 2.7 20:45:14 10° WNW 20:49:20 69° NNE 20:51:07 28° E
Cosmos 909 Rocket 4.2 20:43:29 10° S 20:49:33 48° ESE 20:55:40 10° NE
Cosmos 2151 3.6 20:47:28 10° N 20:51:22 39° ENE 20:52:53 28° ESE
USA 234 4.2 20:49:58 10° ENE 20:54:58 23° SE 20:55:31 23° SE
Cosmos 2233 Rocket 4.0 20:51:18 11° S 20:57:25 88° W 21:03:38 10° N
Cosmos 1607 3.8 20:51:46 10° SSW 20:57:51 68° ESE 21:04:05 10° NE
Cosmos 1626 Rocket 3.6 20:53:50 10° N 20:58:10 65° ENE 21:00:05 32° SSE
Cosmos 2228 3.0 20:55:36 17° SSW 20:58:42 77° W 21:02:50 10° N
USA 186 3.8 20:58:27 12° SW 20:59:58 18° W 21:01:56 10° NW
Okean O Rocket 3.1 20:57:28 10° SSW 21:01:11 30° W 21:05:00 10° NNW
Tsikada Rocket 4.1 20:58:12 10° NNW 21:04:22 72° W 21:08:51 19° S
CZ-4C R/B 2.3 21:04:33 10° WSW 21:08:48 61° NW 21:14:19 10° NE
Cosmos 1992 Rocket 4.0 21:05:58 25° S 21:08:54 58° ESE 21:14:01 10° NNE
Cosmos 1452 Rocket 4.2 21:04:21 10° SW 21:09:27 55° WNW 21:14:37 10° NNE
COSMOS 2406 3.6 21:07:29 28° SSE 21:09:54 42° ESE 21:15:17 10° NE
Meteor 1-20 Rocket 4.2 21:05:31 10° N 21:11:04 71° ENE 21:13:52 30° SSE
SL-16 R/B 2.6 21:06:26 10° NNW 21:12:01 53° NE 21:14:58 27° ESE
Helios 1A 4.0 21:09:41 10° NE 21:13:02 26° E 21:13:02 26° E
ATLAS 3B R/B 4.0 21:09:06 10° NW 21:15:47 34° WSW 21:20:47 16° SSW
Cosmos 1805 3.9 21:14:58 10° N 21:17:57 31° ENE 21:18:02 31° ENE
CZ-4B R/B 3.9 21:19:08 24° SSW 21:21:43 50° W 21:26:23 10° NNW
Cosmos 2333 Rocket 2.5 21:19:18 10° NNW 21:24:56 58° ENE 21:27:39 30° ESE
Cosmos 2098 Rocket 3.7 21:25:32 36° SE 21:27:00 47° E 21:31:29 10° NNE
Cosmos 1302 Rocket 4.4 21:22:00 10° SW 21:27:07 62° WNW 21:32:17 10° NNE
Meteor 1-25 Rocket 4.2 21:24:22 10° N 21:30:07 77° ENE 21:32:32 36° SSE
CZ-4B R/B 4.4 21:33:11 17° SW 21:34:28 21° W 21:37:09 10° NW
Cosmos 1980 Rocket 3.6 21:30:31 10° NW 21:35:19 28° WSW 21:38:33 17° SSW
Cosmos 1544 Rocket 3.7 21:35:33 33° SSW 21:37:25 72° W 21:41:46 10° N
NOSS 3-3 (A) 3.6 21:34:26 11° SW 21:39:28 83° SE 21:45:43 10° NE
Cosmos 1933 3.2 21:44:19 53° SSW 21:45:06 76° W 21:48:55 10° N
Okean 1 4.0 21:49:59 35° ENE 21:49:59 35° ENE 21:52:50 10° NNE
Cosmos 2084 Rocket 4.0 21:45:53 10° NW 21:49:51 42° SW 21:50:19 40° SW
Helios 1B rocket 2.2 21:51:51 55° ENE 21:51:54 55° ENE 21:55:21 10° N
CZ-2C R/B 4.4 21:55:17 16° W 21:55:19 16° W 21:57:09 10° NW
Cosmos 1464 Rocket 3.9 21:53:23 37° S 21:55:59 78° E 22:02:10 10° NNE
Cosmos 2360 Rocket 2.4 21:56:28 10° NNW 22:02:09 65° ENE 22:04:14 38° SE
Meteor 2-10 4.2 21:59:18 10° NNW 22:05:02 88° W 22:06:57 44° S
ALOS 2 3.5 22:06:32 34° E 22:07:23 37° ENE 22:11:27 10° N
NOSS 3-3 (C) 3.8 22:02:52 14° SW 22:07:25 80° NW 22:13:50 10° NE
ARIANE 5 R/B 3.2 22:07:11 41° E 22:08:00 46° ENE 22:12:15 10° N
Cosmos 1825 Rocket 3.4 22:04:15 10° N 22:08:36 89° WSW 22:09:11 66° S
Geosat 4.4 22:03:53 10° NNE 22:08:49 61° NW 22:12:24 19° SW
ISS -2.7 22:05:56 10° W 22:08:14 40° W 22:08:14 40° W
Cosmos 1953 Rocket 3.7 22:05:58 10° N 22:10:17 56° ENE 22:10:47 53° ESE
Cosmos 2058 Rocket 4.0 22:11:46 33° E 22:11:46 33° E 22:15:38 10° NNE
USA 305 4.2 22:11:03 10° WNW 22:13:09 23° W 22:13:09 23° W
BREEZE-M R/B 4.3 22:08:21 10° W 22:16:41 81° N 22:22:24 10° E
Cosmos 1602 Rocket 4.5 22:13:49 10° NNW 22:17:47 37° W 22:18:42 33° WSW
Cosmos 1092 Rocket 4.1 22:12:40 10° N 22:18:48 63° ENE 22:20:51 41° SE
Cosmos 2219 Rocket 2.6 22:14:06 10° NNW 22:19:41 57° ENE 22:21:48 36° ESE
CZ-2C R/B 3.8 22:15:33 10° NNE 22:19:54 54° E 22:20:05 54° ESE
DEBRIS 4.4 22:15:37 10° W 22:19:55 88° N 22:37:17 10° E
NOSS 3-4 (A) 3.8 22:15:44 10° NW 22:22:25 89° NE 22:26:00 35° SE
Cosmos 1437 Rocket 4.2 22:21:47 24° W 22:22:40 28° WNW 22:25:47 10° N
NOSS 3-4 (C) 3.8 22:16:20 10° NW 22:23:03 88° NE 22:26:40 35° SE
Cosmos 540 Rocket 3.9 22:23:21 43° ESE 22:23:40 43° ESE 22:28:32 10° NE
Cosmos 1461 3.0 22:26:32 53° NE 22:26:32 53° NE 22:29:27 10° NE
PSLV R/B 4.5 22:22:07 10° NNE 22:25:44 34° E 22:25:44 34° E
Cosmos 2322 Rocket 2.1 22:23:57 10° NNW 22:29:37 78° WSW 22:31:03 52° S
Cosmos 2034 Rocket 4.0 22:27:37 42° S 22:30:01 89° W 22:36:25 10° N
Cosmos 2082 Rocket 3.9 22:26:03 10° WSW 22:31:08 32° NW 22:36:13 10° NNE
Cosmos 220 Rocket 4.1 22:32:36 56° WSW 22:33:07 63° WNW 22:37:11 10° NNE
Cosmos 1707 4.1 22:38:21 25° NNE 22:38:21 25° NNE 22:39:43 10° NNE
Cosmos 1536 3.1 22:34:50 10° N 22:38:06 53° NE 22:38:06 53° NE
USA 234 3.1 22:32:11 10° ENE 22:38:45 72° SE 22:42:48 25° SW
ACS3 Solar Sail 3.8 22:39:16 10° NE 22:42:05 13° E 22:44:07 12° ESE
COSMOS 2428 4.0 22:37:54 10° NNW 22:43:05 34° NE 22:46:33 18° ESE
Cosmos 2237 Rocket 4.4 22:42:01 10° N 22:46:11 20° NE 22:50:20 10° E
Cosmos 1763 Rocket 3.4 22:45:39 60° S 22:46:32 75° ESE 22:51:49 10° NNE
Cosmos-2242 2.8 22:47:28 86° ENE 22:47:28 86° ENE 22:51:36 10° N
Helios 1A 4.3 22:44:14 10° N 22:47:43 31° WNW 22:48:44 27° W
Cosmos 1503 Rocket 4.0 22:43:07 10° NNW 22:48:16 64° WSW 22:49:02 56° SSW
Cosmos 1777 Rocket 4.3 22:43:27 10° NNW 22:48:30 50° WSW 22:49:16 46° SW
Cosmos 2278 4.3 22:43:13 10° NW 22:48:34 42° WSW 22:49:38 38° SW
CZ-2C R/B 3.9 22:45:32 10° NNE 22:50:54 42° E 22:51:56 38° ESE
Cosmos 990 Rocket 3.8 22:46:29 10° NNW 22:51:40 83° WSW 22:52:30 63° S
COSMOS 2406 4.4 22:49:26 13° WSW 22:54:13 40° NW 22:59:38 10° NNE
ARGOS Delta rocket 3.9 22:50:17 10° NNE 22:55:18 76° E 22:56:07 61° SSE
USA 290 3.6 22:56:48 38° N 22:56:48 38° N 22:58:54 10° NNE
SL-16 R/B 3.3 22:50:58 10° NW 22:55:49 30° WSW 22:56:47 28° WSW
Cosmos 1354 Rocket 3.9 22:53:16 10° NNW 22:58:32 75° WSW 22:59:19 62° S
Cosmos 1634 Rocket 3.9 22:57:50 50° S 22:59:38 88° E 23:05:51 10° N
Cosmos 1766 4.1 22:59:06 10° NNW 23:01:17 36° NW 23:01:17 36° NW
Cosmos 2279 Rocket 4.0 23:01:48 48° SSE 23:03:29 68° E 23:09:43 10° NNE
Cosmos 1470 3.5 23:01:45 10° N 23:04:12 40° NNE 23:04:12 40° NNE
SeaSat 1 3.0 23:03:53 35° ESE 23:05:33 52° NE 23:10:20 10° NNW
Meteor 2-6 Rocket 4.3 23:06:35 53° SSE 23:08:00 73° E 23:13:59 10° NNE
Cosmos 2333 Rocket 3.4 23:04:09 10° NW 23:08:51 27° WSW 23:09:39 26° WSW
Cosmos 2221 3.0 23:09:57 44° E 23:09:57 44° E 23:13:43 10° NNE
Meteor 2-2 Rocket 4.3 23:10:20 50° SSW 23:11:50 74° WNW 23:17:35 10° N
Cosmos 1842 4.1 23:13:51 37° NNE 23:13:51 37° NNE 23:15:54 10° NNE
Cosmos 841 Rocket 4.4 23:12:28 33° ESE 23:12:46 33° ESE 23:17:24 10° NE
CZ-2C R/B 2.8 23:16:22 48° SE 23:17:43 66° ENE 23:22:56 10° N
BREEZE-M DEB (TANK) 3.4 23:10:58 10° W 23:18:13 76° S 23:23:19 10° ESE
Cosmos 1833 4.2 23:17:42 47° SW 23:19:21 78° WNW 23:25:02 10° NNE
Cosmos 1975 3.0 23:25:08 10° N 23:28:17 62° N 23:28:17 62° N
Aureole 1 Rocket 3.8 23:25:22 10° NNW 23:30:41 68° WSW 23:32:03 52° SSW
Cosmos 2266 Rocket 4.0 23:26:34 10° N 23:32:36 71° ENE 23:34:28 45° SSE
Cosmos 2322 3.7 23:27:44 10° NNW 23:33:27 77° ENE 23:35:16 45° SE
Cosmos 1812 Rocket 3.6 23:34:01 62° ESE 23:34:06 62° E 23:38:28 10° NNE
Cosmos 2297 Rocket 3.5 23:33:58 24° ESE 23:34:46 25° ESE 23:39:16 10° NE
Cosmos 44 3.4 23:31:33 10° NW 23:37:00 88° SW 23:38:08 57° SSE
Cosmos 1271 Rocket 3.2 23:38:07 49° NNW 23:38:07 49° NNW 23:40:47 10° N
Cosmos 372 Rocket 3.8 23:37:56 10° NNW 23:43:02 68° WSW 23:43:34 63° SSW
ALOS 2 4.0 23:43:55 26° W 23:43:55 26° W 23:47:33 10° NW
RESURS DK-1 2.6 23:40:05 10° NNW 23:44:01 60° ENE 23:44:13 59° ENE
Cosmos 1937 Rocket 3.5 23:39:13 10° NNW 23:44:23 72° ENE 23:45:41 49° SE
ARIANE 5 R/B 4.3 23:44:33 22° W 23:44:33 22° W 23:47:59 10° NW
Cosmos 2360 Rocket 3.5 23:41:13 10° NW 23:45:38 24° WSW 23:45:57 24° WSW
ISS-0.223:50:53E23:50:53E23:41:23WNW
Meteor 1-11 Rocket 3.6 23:42:19 10° NNW 23:48:06 86° ENE 23:49:31 53° SSE
GP-B 2.9 23:44:40 10° N 23:49:03 75° W 23:49:14 74° WSW
Cosmos 2058 Rocket 4.4 23:48:53 26° W 23:49:36 28° WNW 23:53:22 10° N
Meteor 2-20 4.5 23:48:56 47° SSE 23:50:42 69° E 23:56:47 10° NNE
Cosmos 468 Rocket 4.2 23:51:07 47° WSW 23:52:27 64° WNW 23:57:43 10° NNE
Meteor 1-10 Rocket 4.3 23:52:26 52° S 23:53:58 83° E 23:59:56 10° NNE
